Tracking 19254 objects as of 19-Oct-2018
HD Live streaming from Space Station
objects crossing your sky now

FENGYUN 1C DEB

Track FENGYUN 1C DEB now!
10-day predictions


NORAD ID: 30730
Int'l Code: 1999-025ASQ
Perigee: 782.5 km
Apogee: 911.3 km
Inclination: 98.9 °
Period: 101.7 minutes
Semi major axis: 7217 km
RCS: 0.031 m2 (small)
Launch date: May 10, 1999
Source: People's Republic of China (PRC)
Launch site: Taiyaun Space Center, China (TSC)

Note: This is SATELLITE DEBRIS
aabbcc
Your satellite tracking list
Your tracking list is empty




NASA's NSSDC Master Catalog

Two Line Element Set (TLE):
1 30730U 99025ASQ 18292.60894229 +.00000438 +00000-0 +23697-3 0  9995
2 30730 098.8727 331.9512 0089233 347.0628 128.7484 14.15747580599879
Source of the keplerian elements: AFSPC